Grand Forks, ND

12:44 PM CST on November 23, 2017 (GMT -0600)
Grand Forks International

Weather History for KGFK - December, 2013

Change the Weather History Date:

Friday, December 27, 2013

  Actual Average Record
Temperature  
Mean Temperature 31 °F 8 °F  
Max Temperature 38 °F 17 °F 42 °F (1999)
Min Temperature 23 °F -1 °F -24 °F (1964)
Degree Days  
Heating Degree Days 34 57  
Month to date heating degree days 1702 1431  
Since 1 July heating degree days 3813 3630  
Cooling Degree Days 0 0  
Month to date cooling degree days 0 0  
Year to date cooling degree days 487 379  
Moisture  
Dew Point 26 °F    
Average Humidity 81    
Maximum Humidity 92    
Minimum Humidity 70    
Precipitation  
Precipitation 0.00 in 0.02 in 0.18 in (1959)
Month to date precipitation 0.79 0.53  
Year to date precipitation 19.62 20.73  
Snow  
Snow 0.00 in 0.30 in 3.80 in (1996)
Month to date snowfall 22.0 9.2  
Since 1 July snowfall 23.6 18.4  
Snow Depth 10.00 in    
Sea Level Pressure  
Sea Level Pressure 29.87 in    
Wind  
Wind Speed 11 mph (West)    
Max Wind Speed 23 mph    
Max Gust Speed 29 mph    
Visibility 10 miles    
Events      
T = Trace of Precipitation, MM = Missing Value Source: NWS Daily Summary

Daily Weather History Graph

Daily Weather History Graph

Search for Another Location

Airport or City:

Trip Planner

Search our weather history database for the weather conditions in past years. The results will help you decide how hot, cold, wet, or windy it might be!

Date:

Astronomy

Dec. 27, 2013 Rise Set
Actual Time 8:17 AM CST 4:42 PM CST
Civil Twilight 7:41 AM CST 5:18 PM CST
Nautical Twilight 7:01 AM CST 5:58 PM CST
Astronomical Twilight 6:24 AM CST 6:35 PM CST
Moon 2:35 AM CST (12/27) 1:07 PM CST (12/27)
Length of Visible Light 9h 36m
Length of Day
8h 24m
Waning Crescent, 28% of the Moon is Illuminated
Dec 27
Waning Crescent
Jan 1
New
Jan 7
First Quarter
Jan 15
Full
Jan 23
Last Quarter

Hourly Weather History & Observations

Time (CST) Temp. Windchill Dew Point Humidity Pressure Visibility Wind Dir Wind Speed Gust Speed Precip Events Conditions
12:24 AM 24.8 °F 14.0 °F 21.2 °F 86% 29.92 in 10.0 mi South 11.5 mph - N/A   Partly Cloudy
12:53 AM 25.0 °F 13.6 °F 21.0 °F 85% 29.96 in 10.0 mi South 12.7 mph - N/A   Clear
1:53 AM 27.0 °F 14.3 °F 23.0 °F 85% 29.92 in 10.0 mi South 17.3 mph - N/A   Clear
2:53 AM 28.0 °F 15.7 °F 25.0 °F 88% 29.88 in 10.0 mi South 17.3 mph - N/A   Clear
3:53 AM 26.1 °F 13.6 °F 21.9 °F 84% 29.85 in 10.0 mi South 16.1 mph - N/A   Clear
4:53 AM 27.0 °F 13.9 °F 23.0 °F 85% 29.80 in 10.0 mi South 18.4 mph - N/A   Overcast
5:53 AM 26.1 °F 14.0 °F 21.9 °F 84% 29.77 in 10.0 mi South 15.0 mph - N/A   Scattered Clouds
6:53 AM 25.0 °F 14.2 °F 21.0 °F 85% 29.75 in 10.0 mi SSW 11.5 mph - N/A   Mostly Cloudy
7:53 AM 26.1 °F 15.0 °F 21.9 °F 84% 29.74 in 10.0 mi SSW 12.7 mph - N/A   Mostly Cloudy
8:53 AM 23.0 °F 15.8 °F 19.0 °F 85% 29.75 in 10.0 mi SSW 5.8 mph - N/A   Overcast
9:53 AM 34.0 °F 23.4 °F 27.0 °F 75% 29.76 in 10.0 mi WNW 17.3 mph - N/A   Scattered Clouds
10:53 AM 37.0 °F 28.9 °F 28.9 °F 73% 29.80 in 10.0 mi NW 12.7 mph - N/A   Scattered Clouds
11:53 AM 37.9 °F 27.6 °F 30.0 °F 73% 29.82 in 10.0 mi NW 20.7 mph 26.5 mph N/A   Scattered Clouds
12:53 PM 37.0 °F 28.1 °F 30.0 °F 76% 29.86 in 10.0 mi NW 15.0 mph - N/A   Scattered Clouds
1:30 PM 37.4 °F 27.5 °F 30.2 °F 75% 29.85 in 10.0 mi NW 18.4 mph - N/A   Overcast
1:53 PM 37.0 °F 27.4 °F 30.0 °F 76% 29.88 in 10.0 mi NW 17.3 mph - N/A   Overcast
2:53 PM 36.0 °F 27.5 °F 30.0 °F 79% 29.89 in 10.0 mi NW 12.7 mph - N/A   Overcast
3:53 PM 35.1 °F 26.9 °F 30.0 °F 82% 29.91 in 10.0 mi North 11.5 mph - N/A   Overcast
4:53 PM 34.0 °F 26.6 °F 28.0 °F 79% 29.94 in 10.0 mi North 9.2 mph - N/A   Overcast
5:53 PM 32.0 °F 25.6 °F 28.0 °F 85% 29.95 in 10.0 mi NE 6.9 mph - N/A   Overcast
6:53 PM 30.9 °F 26.2 °F 27.0 °F 85% 29.95 in 10.0 mi North 4.6 mph - N/A   Overcast
7:53 PM 30.9 °F 26.2 °F 26.1 °F 82% 29.94 in 10.0 mi North 4.6 mph - N/A   Overcast
8:53 PM 30.0 °F 26.5 °F 26.1 °F 85% 29.93 in 10.0 mi NE 3.5 mph - N/A   Overcast
9:53 PM 28.9 °F 23.9 °F 25.0 °F 85% 29.92 in 10.0 mi East 4.6 mph - N/A   Overcast
10:48 PM 28.4 °F - 24.8 °F 86% 29.88 in 8.0 mi Calm Calm - N/A   Overcast
10:53 PM 28.0 °F - 26.1 °F 92% 29.91 in 8.0 mi Calm Calm - N/A   Overcast
11:53 PM 28.0 °F 22.8 °F 26.1 °F 92% 29.88 in 4.0 mi East 4.6 mph - N/A   Overcast